Weather History for Reno, NV

Change the Weather History Date:

Sunday, November 27, 2011

  Actual Average Record
Temperature  
Mean Temperature 45 °F 39 °F  
Max Temperature 59 °F 50 °F 73 °F (2014)
Min Temperature 31 °F 28 °F 7 °F (1948)
Degree Days  
Heating Degree Days 20 26  
Month to date heating degree days 611 588  
Since 1 July heating degree days 878 1024  
Cooling Degree Days 0 0  
Month to date cooling degree days 0 0  
Year to date cooling degree days 964 839  
Moisture  
Dew Point 22 °F    
Average Humidity 47    
Maximum Humidity 69    
Minimum Humidity 24    
Precipitation  
Precipitation 0.00 in 0.03 in 0.65 in (2004)
Month to date precipitation 0.06 0.73  
Year to date precipitation 4.92 6.28  
Snow  
Snow 0.00 in 0.20 in 4.50 in (2004)
Month to date snowfall T 2.8  
Since 1 July snowfall T 3.2  
Since 1 September snowfall T 3.2  
Snow Depth 0.00 in    
Sea Level Pressure  
Sea Level Pressure 30.39 in    
Wind  
Wind Speed 1 mph (North)    
Max Wind Speed 12 mph    
Max Gust Speed 13 mph    
Visibility 10 miles    
Events      
T = Trace of Precipitation, MM = Missing Value Source: NWS Daily Summary

Daily Weather History Graph

Daily Weather History Graph

Search for Another Location

Airport:

Trip Planner

Search our weather history database for the weather conditions in past years. The results will help you decide how hot, cold, wet, or windy it might be!

Date:

Astronomy

Nov. 27, 2011 Rise Set
Actual Time 6:56 AM PST 4:37 PM PST
Civil Twilight 6:26 AM PST 5:06 PM PST
Nautical Twilight 5:53 AM PST 5:39 PM PST
Astronomical Twilight 5:21 AM PST 6:11 PM PST
Moon 9:24 AM PST (11/27) 7:21 PM PST (11/27)
Length of Visible Light 10h 39m
Length of Day
9h 40m
Waxing Crescent, 9% of the Moon is Illuminated
Nov 27
Waxing Crescent
Dec 2
First Quarter
Dec 10
Full
Dec 17
Last Quarter
Dec 24
New

Hourly Weather History & Observations

Time (PST) Temp. Windchill Dew Point Humidity Pressure Visibility Wind Dir Wind Speed Gust Speed Precip Events Conditions
12:55 AM 35.1 °F - 23.0 °F 61% 30.45 in 10.0 mi Calm Calm - N/A   Mostly Cloudy
1:55 AM 32.0 °F - 21.9 °F 66% 30.44 in 10.0 mi Calm Calm - N/A   Overcast
2:55 AM 32.0 °F - 21.2 °F 64% 30.45 in 10.0 mi Calm Calm - N/A   Mostly Cloudy
3:55 AM 32.0 °F - 21.9 °F 66% 30.43 in 10.0 mi Calm Calm - N/A   Mostly Cloudy
4:55 AM 32.0 °F - 21.9 °F 66% 30.43 in 10.0 mi Calm Calm - N/A   Mostly Cloudy
5:55 AM 30.9 °F - 21.9 °F 69% 30.44 in 10.0 mi Calm Calm - N/A   Mostly Cloudy
6:55 AM 30.2 °F - 21.2 °F 69% 30.45 in 10.0 mi Calm Calm - N/A   Mostly Cloudy
7:55 AM 30.9 °F - 21.9 °F 69% 30.48 in 10.0 mi Calm Calm - N/A   Mostly Cloudy
8:55 AM 34.0 °F - 23.0 °F 64% 30.48 in 10.0 mi Calm Calm - N/A   Mostly Cloudy
9:55 AM 37.4 °F - 23.0 °F 56% 30.46 in 10.0 mi Calm Calm - N/A   Mostly Cloudy
10:55 AM 41.0 °F - 24.1 °F 51% 30.46 in 10.0 mi Calm Calm - N/A   Mostly Cloudy
11:55 AM 43.0 °F 41.3 °F 23.0 °F 45% 30.43 in 10.0 mi ENE 3.5 mph - N/A   Mostly Cloudy
12:55 PM 48.9 °F - 23.0 °F 36% 30.38 in 10.0 mi Calm Calm - N/A   Mostly Cloudy
1:55 PM 53.1 °F - 21.0 °F 29% 30.33 in 10.0 mi Calm Calm - N/A   Mostly Cloudy
2:55 PM 57.2 °F - 21.2 °F 25% 30.33 in 10.0 mi NNW 4.6 mph - N/A   Mostly Cloudy
3:55 PM 57.0 °F - 21.0 °F 25% 30.30 in 10.0 mi NE 10.4 mph - N/A   Mostly Cloudy
4:55 PM 55.0 °F - 21.0 °F 27% 30.30 in 10.0 mi Calm Calm - N/A   Mostly Cloudy
5:55 PM 51.1 °F - 21.0 °F 31% 30.33 in 10.0 mi Calm Calm - N/A   Mostly Cloudy
6:55 PM 48.0 °F - 21.0 °F 34% 30.34 in 10.0 mi NNW 5.8 mph - N/A   Mostly Cloudy
7:55 PM 44.1 °F 42.5 °F 21.0 °F 40% 30.34 in 10.0 mi North 3.5 mph - N/A   Mostly Cloudy
8:55 PM 44.6 °F - 21.2 °F 39% 30.34 in 10.0 mi Calm Calm - N/A   Mostly Cloudy
9:55 PM 42.1 °F 39.2 °F 23.0 °F 47% 30.33 in 10.0 mi North 4.6 mph - N/A   Mostly Cloudy
10:55 PM 39.9 °F - 21.9 °F 49% 30.34 in 10.0 mi Calm Calm - N/A   Mostly Cloudy
11:55 PM 37.0 °F - 21.0 °F 52% 30.35 in 10.0 mi Calm Calm - N/A   Mostly Cloudy